UAL1028 KDEN-PHNL

Flight info

Callsign UAL1028
Flight time N/A
Altitude 34000
Route COORZ7 VOAXA Q134 JULIK/N0453F360 Q134 TATOO OAK ALANN GITLE DIALO/N0450F380 R576 DENNS MAGGI3
Aircraft B38M/M-SDE1FGHILORVWXY/HB1

Departure

Time 2026-05-07 03:30
Airport Denver International Airport (KDEN)

Arrival

Time N/A
Airport Daniel K. Inouye International Airport (PHNL)
Time Latitude Longitude Altitude Speed Heading
2026-05-07 03:08 39.85948 -104.66695 5384 ft 0 kts 180°
2026-05-07 03:17 39.85951 -104.66695 5384 ft 2 kts 180°
2026-05-07 03:18 39.85965 -104.66695 5386 ft 2 kts 178°
2026-05-07 03:18 39.85980 -104.66696 5383 ft 2 kts 176°
2026-05-07 03:18 39.85995 -104.66698 5383 ft 2 kts 174°
2026-05-07 03:18 39.86002 -104.66699 5381 ft 0 kts 174°
2026-05-07 03:23 39.85998 -104.66692 5384 ft 2 kts 123°
2026-05-07 03:23 39.85999 -104.66663 5383 ft 6 kts 85°
2026-05-07 03:23 39.86004 -104.66618 5386 ft 4 kts 88°
2026-05-07 03:24 39.86004 -104.66584 5387 ft 3 kts 92°
2026-05-07 03:24 39.86015 -104.66531 5387 ft 9 kts 54°
2026-05-07 03:24 39.86082 -104.66494 5387 ft 11 kts 27°
2026-05-07 03:24 39.86108 -104.66415 5386 ft 9 kts 91°
2026-05-07 03:25 39.86106 -104.66348 5390 ft 7 kts 91°
2026-05-07 03:25 39.86108 -104.66273 5386 ft 9 kts 76°
2026-05-07 03:25 39.86163 -104.66230 5386 ft 11 kts
2026-05-07 03:25 39.86253 -104.66229 5386 ft 16 kts
2026-05-07 03:26 39.86371 -104.66228 5383 ft 18 kts
2026-05-07 03:26 39.86481 -104.66217 5382 ft 13 kts 26°
2026-05-07 03:26 39.86501 -104.66116 5382 ft 12 kts 93°
2026-05-07 03:26 39.86498 -104.65998 5382 ft 14 kts 91°
2026-05-07 03:27 39.86497 -104.65875 5382 ft 13 kts 88°
2026-05-07 03:27 39.86497 -104.65747 5378 ft 17 kts 91°
2026-05-07 03:27 39.86494 -104.65578 5379 ft 19 kts 91°
2026-05-07 03:27 39.86494 -104.65394 5372 ft 22 kts 90°
2026-05-07 03:28 39.86492 -104.65174 5364 ft 26 kts 90°
2026-05-07 03:28 39.86492 -104.64938 5359 ft 27 kts 91°
2026-05-07 03:28 39.86490 -104.64680 5345 ft 30 kts 91°
2026-05-07 03:28 39.86487 -104.64438 5338 ft 23 kts 91°
2026-05-07 03:29 39.86485 -104.64226 5339 ft 24 kts 90°
2026-05-07 03:29 39.86429 -104.64132 5338 ft 13 kts 176°
2026-05-07 03:29 39.86332 -104.64134 5341 ft 26 kts 181°
2026-05-07 03:29 39.85937 -104.64139 5352 ft 85 kts 180°
2026-05-07 03:30 39.85160 -104.64148 5353 ft 136 kts 180°
2026-05-07 03:30 39.84073 -104.64164 5386 ft 173 kts 181°
2026-05-07 03:30 39.82848 -104.64196 5831 ft 178 kts 181°
2026-05-07 03:30 39.81614 -104.64337 6488 ft 180 kts 202°
2026-05-07 03:31 39.80668 -104.65375 6959 ft 180 kts 240°
2026-05-07 03:31 39.80284 -104.66941 7413 ft 191 kts 268°
2026-05-07 03:31 39.80557 -104.68707 7727 ft 210 kts 287°
2026-05-07 03:31 39.80917 -104.70665 8035 ft 234 kts 282°
2026-05-07 03:32 39.81262 -104.72821 8477 ft 252 kts 282°
2026-05-07 03:32 39.81624 -104.75045 9329 ft 253 kts 284°
2026-05-07 03:32 39.82003 -104.77320 9854 ft 268 kts 284°
2026-05-07 03:32 39.82406 -104.79708 9977 ft 271 kts 285°
2026-05-07 03:33 39.82815 -104.82100 9991 ft 270 kts 285°
2026-05-07 03:33 39.83226 -104.84486 10003 ft 270 kts 285°
2026-05-07 03:33 39.83639 -104.86867 10003 ft 270 kts 285°
2026-05-07 03:33 39.84054 -104.89259 10009 ft 270 kts 285°
2026-05-07 03:34 39.84325 -104.91691 10216 ft 273 kts 274°
2026-05-07 03:34 39.84373 -104.94157 10994 ft 275 kts 275°
2026-05-07 03:34 39.84434 -104.96661 11697 ft 279 kts 276°
2026-05-07 03:34 39.84497 -104.99206 12432 ft 283 kts 276°
2026-05-07 03:35 39.84560 -105.01784 13149 ft 287 kts 277°
2026-05-07 03:35 39.84623 -105.04395 13838 ft 292 kts 277°
2026-05-07 03:35 39.84666 -105.06189 14258 ft 294 kts 277°
2026-05-07 03:35 39.84729 -105.08835 14865 ft 298 kts 277°
2026-05-07 03:36 39.84793 -105.11542 15467 ft 302 kts 277°
2026-05-07 03:36 39.84857 -105.14285 16079 ft 305 kts 277°
2026-05-07 03:36 39.84921 -105.17058 16684 ft 308 kts 277°
2026-05-07 03:36 39.84985 -105.19866 17268 ft 311 kts 277°
2026-05-07 03:37 39.85049 -105.22696 17841 ft 315 kts 277°
2026-05-07 03:37 39.85113 -105.25554 18436 ft 317 kts 278°
2026-05-07 03:37 39.85179 -105.28437 18912 ft 320 kts 278°
2026-05-07 03:37 39.85247 -105.31347 19370 ft 323 kts 278°
2026-05-07 03:38 39.85312 -105.34278 19846 ft 325 kts 278°
2026-05-07 03:38 39.85376 -105.37237 20289 ft 328 kts 278°
2026-05-07 03:38 39.85441 -105.40214 20749 ft 330 kts 278°
2026-05-07 03:38 39.85505 -105.43222 21168 ft 334 kts 278°
2026-05-07 03:39 39.85570 -105.46259 21572 ft 339 kts 278°
2026-05-07 03:39 39.85628 -105.49400 21622 ft 355 kts 277°
2026-05-07 03:39 39.85687 -105.52675 21657 ft 370 kts 277°
2026-05-07 03:39 39.85747 -105.56068 21878 ft 378 kts 277°
2026-05-07 03:40 39.85815 -105.59497 22372 ft 380 kts 277°
2026-05-07 03:40 39.85884 -105.62955 22806 ft 384 kts 277°
2026-05-07 03:40 39.85954 -105.66446 23319 ft 387 kts 277°
2026-05-07 03:40 39.86022 -105.69958 23742 ft 391 kts 277°
2026-05-07 03:41 39.85919 -105.73495 23982 ft 404 kts 269°
2026-05-07 03:41 39.85602 -105.77158 24250 ft 408 kts 269°
2026-05-07 03:41 39.85289 -105.80834 24689 ft 410 kts 269°
2026-05-07 03:41 39.84971 -105.84539 25029 ft 413 kts 269°
2026-05-07 03:42 39.84651 -105.88259 25425 ft 415 kts 269°
2026-05-07 03:42 39.84326 -105.92000 25769 ft 417 kts 269°
2026-05-07 03:42 39.84000 -105.95753 26139 ft 419 kts 269°
2026-05-07 03:42 39.83670 -105.99534 26474 ft 422 kts 269°
2026-05-07 03:43 39.83337 -106.03334 26832 ft 424 kts 269°
2026-05-07 03:43 39.83001 -106.07156 27173 ft 426 kts 270°
2026-05-07 03:43 39.82663 -106.10993 27511 ft 428 kts 269°
2026-05-07 03:43 39.82321 -106.14852 27825 ft 430 kts 270°
2026-05-07 03:44 39.81975 -106.18733 28109 ft 433 kts 270°
2026-05-07 03:44 39.81627 -106.22630 28424 ft 435 kts 270°
2026-05-07 03:44 39.81276 -106.26548 28733 ft 437 kts 269°
2026-05-07 03:44 39.80922 -106.30483 29045 ft 439 kts 269°
2026-05-07 03:45 39.80565 -106.34439 29357 ft 442 kts 269°
2026-05-07 03:45 39.80204 -106.38418 29647 ft 444 kts 269°
2026-05-07 03:45 39.79841 -106.42412 29938 ft 446 kts 269°
2026-05-07 03:45 39.79474 -106.46428 30201 ft 448 kts 269°
2026-05-07 03:46 39.79106 -106.50455 30418 ft 450 kts 269°
2026-05-07 03:46 39.78799 -106.54503 30675 ft 449 kts 272°
2026-05-07 03:46 39.78551 -106.58557 30934 ft 451 kts 271°
2026-05-07 03:46 39.78289 -106.62620 31215 ft 452 kts 271°
2026-05-07 03:47 39.78024 -106.66647 31432 ft 453 kts 271°
2026-05-07 03:47 39.77754 -106.70729 31711 ft 453 kts 271°
2026-05-07 03:47 39.77482 -106.74812 32066 ft 452 kts 271°
2026-05-07 03:47 39.77210 -106.78871 32412 ft 451 kts 271°
2026-05-07 03:48 39.76937 -106.82926 32759 ft 449 kts 271°
2026-05-07 03:48 39.76664 -106.86960 33090 ft 447 kts 271°
2026-05-07 03:48 39.76391 -106.90977 33443 ft 445 kts 271°
2026-05-07 03:48 39.76117 -106.94977 33778 ft 444 kts 271°
2026-05-07 03:49 39.75843 -106.98974 34088 ft 443 kts 271°
2026-05-07 03:49 39.75568 -107.02956 34268 ft 443 kts 271°
2026-05-07 03:49 39.75292 -107.06931 34245 ft 441 kts 271°
2026-05-07 03:50 39.74739 -107.14848 34248 ft 440 kts 271°
2026-05-07 03:50 39.74179 -107.22757 34226 ft 439 kts 271°
2026-05-07 03:51 39.73616 -107.30661 34223 ft 439 kts 271°
2026-05-07 03:51 39.73047 -107.38555 34220 ft 439 kts 271°
2026-05-07 03:52 39.72473 -107.46464 34238 ft 440 kts 271°
2026-05-07 03:52 39.71891 -107.54379 34222 ft 440 kts 271°
2026-05-07 03:53 39.71309 -107.62243 34235 ft 440 kts 270°
2026-05-07 03:53 39.70717 -107.70158 34229 ft 441 kts 270°
2026-05-07 03:54 39.70120 -107.78078 34223 ft 441 kts 270°
2026-05-07 03:54 39.69515 -107.86011 34212 ft 441 kts 270°
2026-05-07 03:55 39.68906 -107.93945 34208 ft 442 kts 270°
2026-05-07 03:55 39.68291 -108.01881 34198 ft 442 kts 270°
2026-05-07 03:56 39.67670 -108.09818 34200 ft 442 kts 270°
2026-05-07 03:56 39.67044 -108.17748 34184 ft 442 kts 270°
2026-05-07 03:57 39.66412 -108.25686 34184 ft 442 kts 270°
2026-05-07 03:57 39.65775 -108.33607 34182 ft 441 kts 270°
2026-05-07 03:58 39.65134 -108.41528 34188 ft 441 kts 270°
2026-05-07 03:58 39.64487 -108.49447 34179 ft 441 kts 270°
2026-05-07 03:59 39.63834 -108.57373 34178 ft 441 kts 270°
2026-05-07 03:59 39.63179 -108.65292 34165 ft 441 kts 270°
2026-05-07 04:00 39.62512 -108.73213 34160 ft 441 kts 270°
2026-05-07 04:00 39.61848 -108.81065 34168 ft 441 kts 269°
2026-05-07 04:01 39.61175 -108.88975 34158 ft 441 kts 269°
2026-05-07 04:01 39.60496 -108.96874 34168 ft 442 kts 269°
2026-05-07 04:02 39.59811 -109.04795 34159 ft 442 kts 269°
2026-05-07 04:02 39.59120 -109.12709 34149 ft 441 kts 269°
2026-05-07 04:03 39.58425 -109.20619 34141 ft 442 kts 269°
2026-05-07 04:03 39.57723 -109.28530 34163 ft 442 kts 269°
2026-05-07 04:04 39.57017 -109.36440 34169 ft 442 kts 269°
2026-05-07 04:04 39.56305 -109.44343 34162 ft 442 kts 269°
2026-05-07 04:05 39.55587 -109.52255 34157 ft 442 kts 269°
2026-05-07 04:05 39.54870 -109.60101 34170 ft 442 kts 269°
2026-05-07 04:06 39.54142 -109.68005 34159 ft 442 kts 269°
2026-05-07 04:06 39.53411 -109.75909 34168 ft 442 kts 269°
2026-05-07 04:07 39.52674 -109.83814 34151 ft 442 kts 269°
2026-05-07 04:07 39.51932 -109.91718 34149 ft 442 kts 268°
2026-05-07 04:08 39.51103 -109.99628 34145 ft 445 kts 265°
2026-05-07 04:08 39.50041 -110.07506 34154 ft 444 kts 265°
2026-05-07 04:09 39.49005 -110.15392 34124 ft 444 kts 266°
2026-05-07 04:09 39.47967 -110.23270 34138 ft 444 kts 265°
2026-05-07 04:10 39.46925 -110.31150 34133 ft 444 kts 265°
2026-05-07 04:10 39.45877 -110.39017 34118 ft 443 kts 265°
2026-05-07 04:11 39.44826 -110.46874 34121 ft 444 kts 265°
2026-05-07 04:11 39.43768 -110.54739 34130 ft 443 kts 265°
2026-05-07 04:12 39.42706 -110.62597 34122 ft 443 kts 265°
2026-05-07 04:12 39.41638 -110.70452 34123 ft 443 kts 265°
2026-05-07 04:13 39.40572 -110.78251 34125 ft 443 kts 265°
2026-05-07 04:13 39.39494 -110.86102 34128 ft 443 kts 265°
2026-05-07 04:14 39.38411 -110.93945 34141 ft 443 kts 265°
2026-05-07 04:14 39.37322 -111.01788 34139 ft 443 kts 265°
2026-05-07 04:15 39.36229 -111.09627 34149 ft 444 kts 265°
2026-05-07 04:15 39.35129 -111.17471 34160 ft 444 kts 265°
2026-05-07 04:16 39.34022 -111.25322 34156 ft 444 kts 265°
2026-05-07 04:16 39.32910 -111.33174 34159 ft 444 kts 265°
2026-05-07 04:17 39.31793 -111.41022 34172 ft 444 kts 265°
2026-05-07 04:17 39.30669 -111.48878 34159 ft 445 kts 264°
2026-05-07 04:18 39.29539 -111.56736 34149 ft 446 kts 264°
2026-05-07 04:18 39.28402 -111.64598 34137 ft 446 kts 264°
2026-05-07 04:19 39.27259 -111.72470 34149 ft 446 kts 264°
2026-05-07 04:19 39.26117 -111.80287 33992 ft 447 kts 264°
2026-05-07 04:20 39.24965 -111.88145 34146 ft 446 kts 264°
2026-05-07 04:20 39.23806 -111.96009 34130 ft 445 kts 264°
2026-05-07 04:21 39.22248 -112.06517 34136 ft 446 kts 264°
2026-05-07 04:21 39.21087 -112.14310 34166 ft 446 kts 264°
2026-05-07 04:22 39.19910 -112.22161 34170 ft 445 kts 264°
2026-05-07 04:22 39.18730 -112.30009 34182 ft 446 kts 264°
2026-05-07 04:23 39.17545 -112.37854 34200 ft 446 kts 264°
2026-05-07 04:23 39.16355 -112.45697 34195 ft 446 kts 264°
2026-05-07 04:24 39.15160 -112.53541 34176 ft 446 kts 264°
2026-05-07 04:24 39.13968 -112.61380 34162 ft 446 kts 264°
2026-05-07 04:25 39.12770 -112.69234 34145 ft 446 kts 264°
2026-05-07 04:25 39.11569 -112.77079 34134 ft 446 kts 264°
2026-05-07 04:26 39.10361 -112.84926 34126 ft 447 kts 264°
2026-05-07 04:26 39.09149 -112.92761 34123 ft 446 kts 263°
2026-05-07 04:27 39.07928 -113.00616 34120 ft 447 kts 263°
2026-05-07 04:27 39.06713 -113.08400 34123 ft 447 kts 263°
2026-05-07 04:28 39.05484 -113.16241 34128 ft 447 kts 263°
2026-05-07 04:28 39.04249 -113.24078 34131 ft 447 kts 263°
2026-05-07 04:29 39.03008 -113.31919 34131 ft 447 kts 263°
2026-05-07 04:29 39.01759 -113.39772 34127 ft 447 kts 263°
2026-05-07 04:30 39.00514 -113.47567 34127 ft 448 kts 263°
2026-05-07 04:30 38.99256 -113.55406 34123 ft 448 kts 263°
2026-05-07 04:31 38.97993 -113.63246 34121 ft 448 kts 263°
2026-05-07 04:31 38.96724 -113.71082 34122 ft 448 kts 263°
2026-05-07 04:32 38.95451 -113.78912 34123 ft 448 kts 263°
2026-05-07 04:32 38.94170 -113.86751 34122 ft 448 kts 263°
2026-05-07 04:33 38.92885 -113.94582 34124 ft 448 kts 263°
2026-05-07 04:33 38.91594 -114.02417 34120 ft 448 kts 263°
2026-05-07 04:34 38.90297 -114.10248 34119 ft 449 kts 262°
2026-05-07 04:34 38.88994 -114.18087 34111 ft 449 kts 262°
2026-05-07 04:35 38.87685 -114.25925 34110 ft 449 kts 262°
2026-05-07 04:35 38.86371 -114.33761 34118 ft 449 kts 262°
2026-05-07 04:36 38.85052 -114.41591 34101 ft 449 kts 262°
2026-05-07 04:36 38.83727 -114.49422 34103 ft 449 kts 262°
2026-05-07 04:37 38.82398 -114.57244 34107 ft 449 kts 262°
2026-05-07 04:37 38.81062 -114.65070 34100 ft 449 kts 262°
2026-05-07 04:38 38.79732 -114.72836 34093 ft 449 kts 262°
2026-05-07 04:38 38.78387 -114.80649 34080 ft 449 kts 262°
2026-05-07 04:39 38.77037 -114.88461 34076 ft 449 kts 262°
2026-05-07 04:39 38.75684 -114.96256 34072 ft 448 kts 262°
2026-05-07 04:40 38.74321 -115.04072 34319 ft 453 kts 263°
2026-05-07 04:40 38.73625 -115.08054 34092 ft 462 kts 263°
2026-05-07 04:40 38.72921 -115.12072 34047 ft 463 kts 263°
2026-05-07 04:41 38.71494 -115.20192 34065 ft 471 kts 263°
2026-05-07 04:41 38.70044 -115.28400 34074 ft 473 kts 263°
2026-05-07 04:42 38.68596 -115.36566 34067 ft 474 kts 263°
2026-05-07 04:42 38.67129 -115.44802 34076 ft 475 kts 263°
2026-05-07 04:43 38.65654 -115.53052 34071 ft 476 kts 263°
2026-05-07 04:43 38.64171 -115.61304 34082 ft 476 kts 263°
2026-05-07 04:44 38.62691 -115.69506 34082 ft 477 kts 263°
2026-05-07 04:44 38.61195 -115.77764 34088 ft 477 kts 263°
2026-05-07 04:45 38.59690 -115.86035 34079 ft 478 kts 263°
2026-05-07 04:45 38.58177 -115.94312 34087 ft 478 kts 263°
2026-05-07 04:46 38.56655 -116.02603 34077 ft 480 kts 263°
2026-05-07 04:46 38.55126 -116.10896 34095 ft 480 kts 263°
2026-05-07 04:47 38.53591 -116.19192 34090 ft 480 kts 262°
2026-05-07 04:47 38.52045 -116.27505 34093 ft 481 kts 262°
2026-05-07 04:48 38.50491 -116.35830 34092 ft 482 kts 262°
2026-05-07 04:48 38.48931 -116.44152 34082 ft 482 kts 262°
2026-05-07 04:49 38.47361 -116.52489 34101 ft 484 kts 262°
2026-05-07 04:49 38.45787 -116.60815 34118 ft 483 kts 262°
2026-05-07 04:50 38.44205 -116.69149 34118 ft 483 kts 262°
2026-05-07 04:50 38.42616 -116.77486 34089 ft 484 kts 262°
2026-05-07 04:51 38.41027 -116.85793 34111 ft 485 kts 262°
2026-05-07 04:51 38.39426 -116.94132 34112 ft 484 kts 262°
2026-05-07 04:52 38.37816 -117.02489 34113 ft 486 kts 262°
2026-05-07 04:52 38.36198 -117.10848 34125 ft 486 kts 262°
2026-05-07 04:53 38.34572 -117.19220 34124 ft 487 kts 262°
2026-05-07 04:53 38.32961 -117.27592 34116 ft 485 kts 265°
2026-05-07 04:54 38.32037 -117.36053 34087 ft 483 kts 268°
2026-05-07 04:54 38.31174 -117.44529 34090 ft 482 kts 269°
2026-05-07 04:55 38.30311 -117.53006 34073 ft 483 kts 268°
2026-05-07 04:55 38.29441 -117.61485 34074 ft 483 kts 269°
2026-05-07 04:56 38.28570 -117.69913 34067 ft 484 kts 268°
2026-05-07 04:56 38.27687 -117.78393 34074 ft 484 kts 268°
2026-05-07 04:57 38.26797 -117.86886 34069 ft 484 kts 268°
2026-05-07 04:57 38.25901 -117.95377 34068 ft 484 kts 268°
2026-05-07 04:58 38.24997 -118.03878 34057 ft 484 kts 268°
2026-05-07 04:58 38.24088 -118.12367 34064 ft 485 kts 268°
2026-05-07 04:59 38.23171 -118.20873 34064 ft 485 kts 268°
2026-05-07 04:59 38.22248 -118.29376 34065 ft 485 kts 268°
2026-05-07 05:00 38.21319 -118.37884 34061 ft 486 kts 268°
2026-05-07 05:00 38.20382 -118.46391 34082 ft 486 kts 268°
2026-05-07 05:01 38.19440 -118.54891 34083 ft 486 kts 268°
2026-05-07 05:01 38.18491 -118.63403 34098 ft 486 kts 268°
2026-05-07 05:02 38.17534 -118.71920 34099 ft 486 kts 268°
2026-05-07 05:02 38.16579 -118.80367 33652 ft 486 kts 268°
2026-05-07 05:03 38.16096 -118.84622 34122 ft 486 kts 268°
2026-05-07 05:03 38.15612 -118.88871 34121 ft 486 kts 267°
2026-05-07 05:03 38.14637 -118.97379 34130 ft 486 kts 267°
2026-05-07 05:04 38.13660 -119.05862 34144 ft 485 kts 267°
2026-05-07 05:04 38.12676 -119.14335 34161 ft 485 kts 267°
2026-05-07 05:05 38.11688 -119.22793 34171 ft 483 kts 267°
2026-05-07 05:05 38.10696 -119.31231 34165 ft 483 kts 266°
2026-05-07 05:06 38.09700 -119.39650 34195 ft 481 kts 266°
2026-05-07 05:06 38.08701 -119.48042 34175 ft 480 kts 266°
2026-05-07 05:07 38.07698 -119.56423 34193 ft 480 kts 266°
2026-05-07 05:07 38.06695 -119.64735 34190 ft 480 kts 266°
2026-05-07 05:08 38.05683 -119.73086 34164 ft 478 kts 266°
2026-05-07 05:08 38.04665 -119.81429 34162 ft 479 kts 266°
2026-05-07 05:09 38.03643 -119.89758 34150 ft 477 kts 266°
2026-05-07 05:09 38.02782 -119.96733 34148 ft 478 kts 266°
2026-05-07 05:10 38.01748 -120.05059 34148 ft 477 kts 266°
2026-05-07 05:10 38.00718 -120.13317 34143 ft 477 kts 266°
2026-05-07 05:11 37.99677 -120.21602 34167 ft 476 kts 266°
2026-05-07 05:11 37.98630 -120.29896 34141 ft 476 kts 265°
2026-05-07 05:12 37.97577 -120.38185 34150 ft 476 kts 265°
2026-05-07 05:12 37.96518 -120.46465 34152 ft 476 kts 265°
2026-05-07 05:13 37.95454 -120.54744 34151 ft 476 kts 265°
2026-05-07 05:13 37.94384 -120.63026 34153 ft 476 kts 265°
2026-05-07 05:14 37.93308 -120.71298 34148 ft 476 kts 265°
2026-05-07 05:14 37.92234 -120.79513 34136 ft 476 kts 265°
2026-05-07 05:15 37.91148 -120.87776 34127 ft 475 kts 265°
2026-05-07 05:15 37.90056 -120.96032 34129 ft 475 kts 265°
2026-05-07 05:16 37.88958 -121.04288 34130 ft 475 kts 265°
2026-05-07 05:16 37.87855 -121.12543 34138 ft 475 kts 264°
2026-05-07 05:17 37.86748 -121.20777 34143 ft 474 kts 264°
2026-05-07 05:17 37.85637 -121.29000 34149 ft 474 kts 264°
2026-05-07 05:18 37.84519 -121.37222 34129 ft 473 kts 264°
2026-05-07 05:18 37.83405 -121.45376 34135 ft 473 kts 264°
2026-05-07 05:19 37.82279 -121.53571 34133 ft 473 kts 264°
2026-05-07 05:19 37.81149 -121.61759 34128 ft 472 kts 264°
2026-05-07 05:20 37.80013 -121.69942 34162 ft 472 kts 264°
2026-05-07 05:20 37.78875 -121.78105 34158 ft 471 kts 264°
2026-05-07 05:21 37.77160 -121.90334 34169 ft 470 kts 264°
2026-05-07 05:22 37.76013 -121.98467 34166 ft 470 kts 263°
2026-05-07 05:22 37.74861 -122.06592 34187 ft 469 kts 263°
2026-05-07 05:23 37.73706 -122.14701 34194 ft 469 kts 263°
2026-05-07 05:23 37.72172 -122.22703 34195 ft 473 kts 250°
2026-05-07 05:24 37.69407 -122.30262 34201 ft 476 kts 243°
2026-05-07 05:24 37.67588 -122.33759 34161 ft 479 kts 231°
2026-05-07 05:24 37.65184 -122.36675 34197 ft 480 kts 223°
2026-05-07 05:24 37.62921 -122.39754 34142 ft 477 kts 239°
2026-05-07 05:25 37.61198 -122.43314 34199 ft 477 kts 239°
2026-05-07 05:25 37.57435 -122.50224 34213 ft 478 kts 238°
2026-05-07 05:26 37.53664 -122.57116 34200 ft 478 kts 238°
2026-05-07 05:26 37.49912 -122.63961 34203 ft 477 kts 238°
2026-05-07 05:27 37.46134 -122.70840 34193 ft 477 kts 238°
2026-05-07 05:27 37.42354 -122.77706 34196 ft 477 kts 237°
2026-05-07 05:28 37.38575 -122.84558 34189 ft 476 kts 237°
2026-05-07 05:28 37.34792 -122.91403 34192 ft 476 kts 237°
2026-05-07 05:29 37.31013 -122.98227 34194 ft 475 kts 237°
2026-05-07 05:29 37.27232 -123.05041 34196 ft 475 kts 237°
2026-05-07 05:30 37.23450 -123.11842 34197 ft 475 kts 237°
2026-05-07 05:30 37.19664 -123.18636 34200 ft 474 kts 237°
2026-05-07 05:31 37.15904 -123.25371 34200 ft 474 kts 237°
2026-05-07 05:31 37.12120 -123.32134 34201 ft 474 kts 237°
2026-05-07 05:32 37.08332 -123.38891 34204 ft 473 kts 237°
2026-05-07 05:32 37.04545 -123.45634 34207 ft 473 kts 237°
2026-05-07 05:33 37.00751 -123.52374 34208 ft 473 kts 237°
2026-05-07 05:33 36.96963 -123.59091 34210 ft 473 kts 237°
2026-05-07 05:34 36.93165 -123.65811 34207 ft 472 kts 236°
2026-05-07 05:34 36.91294 -123.69118 34026 ft 472 kts 237°
2026-05-07 05:34 36.89412 -123.72439 34176 ft 464 kts 237°
2026-05-07 05:35 36.85712 -123.78962 34215 ft 458 kts 237°
2026-05-07 05:35 36.82026 -123.85448 34215 ft 458 kts 237°
2026-05-07 05:36 36.78333 -123.91932 34222 ft 458 kts 236°
2026-05-07 05:36 36.74640 -123.98404 34222 ft 458 kts 237°
2026-05-07 05:37 36.70942 -124.04872 34225 ft 458 kts 236°
2026-05-07 05:37 36.67242 -124.11333 34224 ft 458 kts 236°
2026-05-07 05:38 36.63538 -124.17788 34225 ft 458 kts 236°
2026-05-07 05:38 36.59832 -124.24233 34231 ft 458 kts 236°
2026-05-07 05:39 36.56148 -124.30629 34231 ft 457 kts 236°
2026-05-07 05:39 36.52437 -124.37059 34234 ft 458 kts 236°
2026-05-07 05:40 36.48722 -124.43483 34236 ft 457 kts 236°
2026-05-07 05:40 36.45003 -124.49903 34234 ft 457 kts 236°
2026-05-07 05:41 36.41287 -124.56305 34237 ft 457 kts 236°
2026-05-07 05:41 36.37567 -124.62701 34238 ft 457 kts 236°
2026-05-07 05:42 36.33846 -124.69090 34241 ft 457 kts 235°
2026-05-07 05:42 36.30121 -124.75471 34241 ft 457 kts 235°
2026-05-07 05:43 36.26393 -124.81847 34245 ft 456 kts 235°
2026-05-07 05:43 36.22664 -124.88211 34242 ft 456 kts 235°
2026-05-07 05:44 36.18932 -124.94570 34246 ft 456 kts 235°
2026-05-07 05:44 36.15200 -125.00916 34250 ft 456 kts 234°
2026-05-07 05:45 36.11459 -125.07265 34252 ft 456 kts 234°
2026-05-07 05:45 36.07722 -125.13598 34250 ft 456 kts 234°
2026-05-07 05:46 36.03984 -125.19920 34250 ft 456 kts 234°
2026-05-07 05:46 36.00264 -125.26200 34254 ft 455 kts 234°
2026-05-07 05:47 35.96495 -125.32550 34254 ft 455 kts 234°
2026-05-07 05:47 35.92749 -125.38851 34256 ft 455 kts 234°
2026-05-07 05:48 35.89026 -125.45101 34260 ft 455 kts 234°
2026-05-07 05:48 35.85275 -125.51387 34255 ft 455 kts 234°
2026-05-07 05:49 35.81524 -125.57662 34263 ft 455 kts 234°
2026-05-07 05:49 35.77770 -125.63932 34266 ft 455 kts 234°
2026-05-07 05:50 35.74011 -125.70201 34265 ft 454 kts 234°
2026-05-07 05:50 35.70252 -125.76457 34265 ft 454 kts 233°
2026-05-07 05:51 35.66494 -125.82702 34265 ft 454 kts 233°
2026-05-07 05:51 35.62758 -125.88900 34268 ft 454 kts 233°
2026-05-07 05:52 35.59120 -125.95248 34263 ft 453 kts 241°
2026-05-07 05:52 35.56053 -126.02014 34271 ft 454 kts 241°
2026-05-07 05:53 35.52984 -126.08793 34274 ft 454 kts 241°
2026-05-07 05:53 35.49916 -126.15563 34276 ft 454 kts 241°
2026-05-07 05:54 35.46847 -126.22321 34279 ft 453 kts 241°
2026-05-07 05:54 35.43774 -126.29074 34283 ft 453 kts 241°
2026-05-07 05:55 35.40697 -126.35823 34282 ft 453 kts 241°
2026-05-07 05:55 35.38136 -126.41431 34286 ft 453 kts 241°
2026-05-07 05:56 35.34555 -126.49257 34288 ft 453 kts 241°
2026-05-07 05:56 35.31466 -126.55990 34287 ft 453 kts 241°
2026-05-07 05:57 35.28878 -126.61624 34288 ft 453 kts 241°
2026-05-07 05:57 35.25790 -126.68333 34292 ft 453 kts 241°
2026-05-07 05:58 35.22717 -126.74998 34290 ft 453 kts 241°
2026-05-07 05:58 35.19621 -126.81697 34294 ft 453 kts 241°
2026-05-07 05:59 35.16520 -126.88396 34291 ft 452 kts 241°
2026-05-07 05:59 35.13416 -126.95087 34297 ft 453 kts 241°
2026-05-07 06:00 35.10308 -127.01774 34294 ft 453 kts 241°
2026-05-07 06:00 35.07194 -127.08461 34296 ft 453 kts 241°
2026-05-07 06:01 35.04079 -127.15136 34301 ft 453 kts 241°
2026-05-07 06:01 35.00961 -127.21805 34300 ft 453 kts 241°
2026-05-07 06:02 34.97837 -127.28475 34304 ft 452 kts 241°
2026-05-07 06:02 34.94711 -127.35135 34305 ft 452 kts 241°
2026-05-07 06:03 34.91583 -127.41788 34304 ft 452 kts 241°
2026-05-07 06:03 34.88473 -127.48391 34306 ft 452 kts 241°
2026-05-07 06:04 34.85340 -127.55027 34310 ft 452 kts 241°
2026-05-07 06:04 34.82204 -127.61658 34305 ft 452 kts 241°
2026-05-07 06:05 34.79069 -127.68275 34308 ft 451 kts 241°
2026-05-07 06:05 34.75929 -127.74888 34308 ft 451 kts 241°
2026-05-07 06:06 34.72789 -127.81490 34312 ft 451 kts 241°
2026-05-07 06:06 34.69647 -127.88085 34314 ft 450 kts 241°
2026-05-07 06:07 34.66499 -127.94677 34316 ft 450 kts 241°
2026-05-07 06:07 34.63353 -128.01254 34317 ft 450 kts 241°
2026-05-07 06:08 34.60219 -128.07796 34319 ft 450 kts 241°
2026-05-07 06:08 34.57066 -128.14363 34315 ft 450 kts 241°
2026-05-07 06:09 34.53912 -128.20920 34317 ft 450 kts 241°
2026-05-07 06:09 34.50757 -128.27465 34322 ft 450 kts 241°
2026-05-07 06:10 34.47599 -128.34006 34318 ft 449 kts 241°
2026-05-07 06:10 34.44435 -128.40547 34321 ft 449 kts 241°
2026-05-07 06:11 34.41292 -128.47033 34322 ft 449 kts 241°
2026-05-07 06:11 34.38126 -128.53553 34322 ft 449 kts 241°
2026-05-07 06:12 34.34954 -128.60075 34326 ft 449 kts 240°
2026-05-07 06:12 34.31783 -128.66582 34329 ft 449 kts 240°
2026-05-07 06:13 34.28610 -128.73081 34329 ft 449 kts 240°
2026-05-07 06:13 34.25428 -128.79587 34328 ft 449 kts 240°
2026-05-07 06:14 34.22246 -128.86082 34331 ft 449 kts 240°
2026-05-07 06:14 34.19077 -128.92537 34331 ft 450 kts 240°
2026-05-07 06:15 34.15880 -128.99037 34339 ft 450 kts 240°
2026-05-07 06:15 34.12675 -129.05542 34332 ft 451 kts 240°
2026-05-07 06:16 34.09466 -129.12045 34332 ft 451 kts 241°
2026-05-07 06:16 34.06247 -129.18554 34334 ft 452 kts 241°
2026-05-07 06:17 34.03022 -129.25064 34337 ft 453 kts 241°
2026-05-07 06:17 33.99784 -129.31589 34335 ft 453 kts 241°
2026-05-07 06:18 33.96541 -129.38111 34338 ft 454 kts 242°
2026-05-07 06:18 33.93282 -129.44652 34335 ft 455 kts 242°
2026-05-07 06:19 33.90021 -129.51187 34335 ft 456 kts 242°
2026-05-07 06:19 33.86748 -129.57734 34337 ft 457 kts 242°
2026-05-07 06:20 33.83485 -129.64248 34337 ft 457 kts 242°
2026-05-07 06:20 33.80194 -129.70808 34333 ft 458 kts 242°
2026-05-07 06:21 33.76895 -129.77370 34337 ft 458 kts 242°
2026-05-07 06:21 33.73592 -129.83930 34338 ft 459 kts 242°
2026-05-07 06:22 33.70283 -129.90489 34336 ft 459 kts 242°
2026-05-07 06:22 33.65312 -130.00319 34341 ft 459 kts 242°
2026-05-07 06:23 33.61990 -130.06873 34340 ft 459 kts 242°
2026-05-07 06:23 33.58692 -130.13370 34338 ft 459 kts 242°
2026-05-07 06:24 33.55369 -130.19902 34344 ft 459 kts 242°
2026-05-07 06:24 33.52042 -130.26432 34342 ft 459 kts 242°
2026-05-07 06:25 33.48716 -130.32948 34343 ft 458 kts 242°
2026-05-07 06:25 33.45386 -130.39459 34345 ft 458 kts 242°
2026-05-07 06:26 33.42051 -130.45970 34341 ft 458 kts 242°
2026-05-07 06:26 33.38712 -130.52473 34343 ft 458 kts 242°
2026-05-07 06:27 33.35375 -130.58965 34345 ft 458 kts 242°
2026-05-07 06:27 33.32035 -130.65450 34345 ft 458 kts 242°
2026-05-07 06:28 33.28691 -130.71932 34349 ft 458 kts 242°
2026-05-07 06:28 33.25342 -130.78411 34347 ft 458 kts 242°
2026-05-07 06:29 33.21994 -130.84877 34348 ft 458 kts 242°
2026-05-07 06:29 33.18636 -130.91350 34352 ft 458 kts 242°
2026-05-07 06:30 33.15277 -130.97816 34351 ft 458 kts 242°
2026-05-07 06:30 33.11916 -131.04271 34356 ft 458 kts 242°
2026-05-07 06:31 33.08548 -131.10730 34347 ft 458 kts 242°
2026-05-07 06:31 33.05198 -131.17144 34341 ft 458 kts 242°
2026-05-07 06:32 33.01826 -131.23588 34342 ft 458 kts 242°
2026-05-07 06:32 32.98450 -131.30028 34346 ft 458 kts 242°
2026-05-07 06:33 32.95072 -131.36461 34348 ft 458 kts 242°
2026-05-07 06:33 32.91692 -131.42887 34340 ft 458 kts 242°
2026-05-07 06:34 32.88312 -131.49301 34345 ft 457 kts 242°
2026-05-07 06:34 32.84929 -131.55711 34348 ft 457 kts 242°
2026-05-07 06:35 32.81547 -131.62106 34349 ft 457 kts 241°
2026-05-07 06:35 32.78161 -131.68499 34348 ft 456 kts 241°
2026-05-07 06:36 32.74773 -131.74884 34347 ft 456 kts 241°
2026-05-07 06:36 32.71409 -131.81214 34344 ft 456 kts 241°
2026-05-07 06:37 32.68022 -131.87574 34346 ft 456 kts 241°
2026-05-07 06:37 32.64631 -131.93934 34343 ft 455 kts 241°
2026-05-07 06:38 32.61241 -132.00280 34348 ft 455 kts 241°
2026-05-07 06:38 32.57849 -132.06619 34346 ft 455 kts 241°
2026-05-07 06:39 32.54454 -132.12951 34344 ft 455 kts 241°
2026-05-07 06:39 32.51061 -132.19273 34344 ft 455 kts 241°
2026-05-07 06:40 32.47662 -132.25596 34347 ft 454 kts 241°
2026-05-07 06:40 32.44290 -132.31858 34343 ft 454 kts 241°
2026-05-07 06:41 32.40893 -132.38157 34343 ft 453 kts 241°
2026-05-07 06:41 32.37498 -132.44440 34347 ft 453 kts 241°
2026-05-07 06:42 32.34101 -132.50718 34342 ft 453 kts 241°
2026-05-07 06:42 32.30702 -132.56989 34350 ft 453 kts 241°
2026-05-07 06:43 32.27874 -132.62199 34346 ft 452 kts 241°
2026-05-07 06:43 32.24476 -132.68450 34344 ft 452 kts 241°
2026-05-07 06:44 32.21078 -132.74692 34346 ft 452 kts 241°
2026-05-07 06:44 32.17678 -132.80925 34351 ft 451 kts 241°
2026-05-07 06:45 32.14543 -132.87312 34339 ft 449 kts 244°
2026-05-07 06:45 32.11461 -132.93719 34335 ft 449 kts 244°
2026-05-07 06:46 32.08370 -133.00113 34340 ft 449 kts 244°
2026-05-07 06:46 32.05297 -133.06458 34343 ft 448 kts 244°
2026-05-07 06:47 32.02199 -133.12843 34341 ft 448 kts 244°
2026-05-07 06:47 31.99102 -133.19215 34340 ft 448 kts 243°
2026-05-07 06:48 31.96003 -133.25581 34336 ft 447 kts 244°
2026-05-07 06:48 31.92905 -133.31934 34332 ft 447 kts 243°
2026-05-07 06:49 31.89806 -133.38277 34341 ft 447 kts 243°
2026-05-07 06:49 31.86703 -133.44620 34347 ft 447 kts 243°
2026-05-07 06:50 31.83598 -133.50953 34337 ft 447 kts 243°
2026-05-07 06:50 31.80490 -133.57284 34337 ft 447 kts 243°
2026-05-07 06:51 31.77381 -133.63607 34338 ft 447 kts 243°
2026-05-07 06:51 31.74268 -133.69926 34338 ft 447 kts 243°
2026-05-07 06:52 31.71172 -133.76202 34342 ft 447 kts 243°
2026-05-07 06:52 31.68050 -133.82517 34334 ft 447 kts 243°
2026-05-07 06:53 31.64931 -133.88817 34342 ft 446 kts 243°
2026-05-07 06:53 31.61808 -133.95114 34335 ft 446 kts 243°
2026-05-07 06:54 31.58683 -134.01405 34333 ft 447 kts 243°
2026-05-07 06:54 31.55551 -134.07700 34334 ft 447 kts 243°
2026-05-07 06:55 31.52415 -134.13994 34334 ft 447 kts 243°
2026-05-07 06:55 31.49277 -134.20278 34334 ft 447 kts 243°
2026-05-07 06:56 31.46130 -134.26572 34333 ft 447 kts 243°
2026-05-07 06:56 31.42984 -134.32855 34330 ft 447 kts 243°
2026-05-07 06:57 31.39852 -134.39097 34332 ft 447 kts 243°
2026-05-07 06:57 31.36699 -134.45371 34328 ft 447 kts 243°
2026-05-07 06:58 31.33542 -134.51645 34331 ft 447 kts 243°
2026-05-07 06:58 31.30386 -134.57904 34329 ft 447 kts 243°
2026-05-07 06:59 31.27221 -134.64173 34330 ft 447 kts 243°
2026-05-07 06:59 31.24056 -134.70429 34328 ft 447 kts 243°
2026-05-07 07:00 31.20909 -134.76641 34322 ft 447 kts 243°
2026-05-07 07:00 31.17743 -134.82880 34320 ft 447 kts 243°
2026-05-07 07:01 31.14570 -134.89125 34319 ft 446 kts 243°
2026-05-07 07:01 31.11400 -134.95352 34321 ft 446 kts 243°
2026-05-07 07:02 31.08225 -135.01577 34321 ft 446 kts 243°
2026-05-07 07:02 31.05051 -135.07792 34315 ft 446 kts 243°
2026-05-07 07:03 31.01872 -135.14006 34323 ft 446 kts 243°
2026-05-07 07:03 30.98712 -135.20175 34330 ft 446 kts 243°
2026-05-07 07:04 30.95529 -135.26376 34319 ft 446 kts 243°
2026-05-07 07:04 30.92346 -135.32570 34317 ft 446 kts 242°
2026-05-07 07:05 30.89159 -135.38761 34318 ft 446 kts 242°
2026-05-07 07:05 30.85964 -135.44956 34317 ft 446 kts 242°
2026-05-07 07:06 30.82768 -135.51145 34317 ft 446 kts 242°
2026-05-07 07:06 30.79571 -135.57325 34314 ft 446 kts 242°
2026-05-07 07:07 30.76371 -135.63503 34313 ft 446 kts 242°
2026-05-07 07:07 30.73167 -135.69676 34313 ft 446 kts 242°
2026-05-07 07:08 30.69981 -135.75807 34317 ft 446 kts 242°
2026-05-07 07:08 30.66775 -135.81967 34315 ft 446 kts 242°
2026-05-07 07:09 30.63562 -135.88128 34313 ft 446 kts 242°
2026-05-07 07:09 30.60348 -135.94283 34305 ft 446 kts 242°
2026-05-07 07:10 30.57127 -136.00442 34307 ft 446 kts 242°
2026-05-07 07:10 30.53905 -136.06593 34311 ft 446 kts 242°
2026-05-07 07:11 30.50678 -136.12744 34303 ft 446 kts 242°
2026-05-07 07:11 30.47469 -136.18851 34306 ft 446 kts 242°
2026-05-07 07:12 30.44234 -136.25000 34302 ft 446 kts 242°
2026-05-07 07:12 30.41000 -136.31135 34305 ft 446 kts 242°
2026-05-07 07:13 30.37761 -136.37270 34303 ft 447 kts 242°
2026-05-07 07:13 30.34515 -136.43409 34305 ft 447 kts 242°
2026-05-07 07:14 30.31270 -136.49539 34304 ft 447 kts 242°
2026-05-07 07:14 30.28019 -136.55667 34301 ft 447 kts 242°
2026-05-07 07:15 30.24767 -136.61790 34300 ft 447 kts 242°
2026-05-07 07:15 30.21509 -136.67915 34306 ft 447 kts 242°
2026-05-07 07:16 30.18246 -136.74038 34304 ft 447 kts 242°
2026-05-07 07:16 30.15001 -136.80119 34297 ft 447 kts 242°
2026-05-07 07:17 30.11728 -136.86244 34297 ft 447 kts 242°
2026-05-07 07:17 30.08452 -136.92363 34297 ft 448 kts 242°
2026-05-07 07:18 30.05174 -136.98479 34296 ft 448 kts 241°
2026-05-07 07:18 30.01890 -137.04596 34297 ft 448 kts 241°
2026-05-07 07:19 29.98626 -137.10666 34296 ft 448 kts 241°
2026-05-07 07:19 29.95335 -137.16778 34297 ft 448 kts 241°
2026-05-07 07:20 29.92039 -137.22889 34293 ft 449 kts 241°
2026-05-07 07:20 29.88742 -137.28993 34293 ft 449 kts 241°
2026-05-07 07:21 29.85436 -137.35105 34291 ft 449 kts 241°
2026-05-07 07:21 29.82131 -137.41205 34292 ft 449 kts 241°
2026-05-07 07:22 29.78819 -137.47308 34293 ft 449 kts 241°
2026-05-07 07:22 29.75506 -137.53405 34290 ft 449 kts 241°
2026-05-07 07:23 29.72187 -137.59504 34288 ft 449 kts 241°
2026-05-07 07:23 29.68866 -137.65596 34284 ft 450 kts 241°
2026-05-07 07:24 29.65540 -137.71689 34286 ft 450 kts 241°
2026-05-07 07:24 29.62210 -137.77780 34291 ft 450 kts 241°
2026-05-07 07:25 29.57213 -137.86903 34285 ft 450 kts 241°
2026-05-07 07:26 29.53878 -137.92981 34289 ft 450 kts 241°
2026-05-07 07:26 29.50538 -137.99057 34285 ft 450 kts 241°
2026-05-07 07:27 29.47221 -138.05085 34282 ft 450 kts 240°
2026-05-07 07:27 29.43877 -138.11151 34280 ft 449 kts 240°
2026-05-07 07:28 29.40532 -138.17212 34289 ft 449 kts 240°
2026-05-07 07:28 29.37185 -138.23266 34278 ft 449 kts 240°
2026-05-07 07:29 29.33834 -138.29319 34282 ft 449 kts 240°
2026-05-07 07:29 29.30484 -138.35360 34287 ft 449 kts 240°
2026-05-07 07:30 29.27132 -138.41396 34275 ft 449 kts 240°
2026-05-07 07:30 29.23782 -138.47421 34279 ft 448 kts 240°
2026-05-07 07:31 29.20428 -138.53445 34279 ft 448 kts 240°
2026-05-07 07:31 29.17642 -138.58440 34278 ft 448 kts 240°
2026-05-07 07:32 29.13742 -138.65423 34274 ft 447 kts 240°
2026-05-07 07:32 29.10932 -138.70449 34279 ft 447 kts 240°
2026-05-07 07:33 29.07575 -138.76442 34277 ft 447 kts 240°
2026-05-07 07:33 29.04240 -138.82392 34275 ft 447 kts 240°
2026-05-07 07:34 29.00879 -138.88378 34277 ft 447 kts 240°
2026-05-07 07:34 28.97519 -138.94356 34278 ft 447 kts 240°
2026-05-07 07:35 28.94154 -139.00333 34272 ft 447 kts 240°
2026-05-07 07:35 28.90790 -139.06300 34272 ft 447 kts 240°
2026-05-07 07:36 28.87425 -139.12261 34271 ft 447 kts 240°
2026-05-07 07:36 28.84055 -139.18221 34274 ft 447 kts 240°
2026-05-07 07:37 28.80707 -139.24136 34267 ft 447 kts 240°
2026-05-07 07:37 28.77334 -139.30084 34264 ft 447 kts 239°
2026-05-07 07:38 28.73958 -139.36032 34267 ft 447 kts 239°
2026-05-07 07:38 28.70585 -139.41979 34263 ft 446 kts 242°
2026-05-07 07:39 28.68083 -139.48380 34260 ft 443 kts 249°
2026-05-07 07:39 28.65699 -139.54848 34263 ft 443 kts 250°
2026-05-07 07:40 28.63319 -139.61318 34268 ft 443 kts 249°
2026-05-07 07:40 28.60938 -139.67780 34262 ft 442 kts 249°
2026-05-07 07:41 28.58558 -139.74232 34262 ft 442 kts 249°
2026-05-07 07:41 28.56175 -139.80676 34264 ft 442 kts 249°
2026-05-07 07:42 28.53790 -139.87116 34260 ft 442 kts 249°
2026-05-07 07:42 28.51419 -139.93510 34264 ft 441 kts 249°
2026-05-07 07:43 28.49030 -139.99938 34261 ft 441 kts 249°
2026-05-07 07:43 28.46643 -140.06352 34263 ft 441 kts 249°
2026-05-07 07:44 28.44250 -140.12770 34261 ft 441 kts 249°
2026-05-07 07:44 28.41856 -140.19179 34264 ft 440 kts 249°
2026-05-07 07:45 28.39459 -140.25585 34256 ft 440 kts 249°
2026-05-07 07:45 28.37062 -140.31981 34251 ft 440 kts 249°
2026-05-07 07:46 28.34660 -140.38379 34251 ft 440 kts 249°
2026-05-07 07:46 28.32260 -140.44763 34253 ft 440 kts 249°
2026-05-07 07:47 28.29855 -140.51146 34252 ft 439 kts 249°
2026-05-07 07:47 28.27468 -140.57475 34249 ft 439 kts 249°
2026-05-07 07:48 28.25063 -140.63836 34252 ft 439 kts 249°
2026-05-07 07:48 28.22653 -140.70203 34252 ft 439 kts 249°
2026-05-07 07:49 28.20244 -140.76555 34247 ft 438 kts 248°
2026-05-07 07:49 28.17836 -140.82897 34248 ft 438 kts 249°
2026-05-07 07:50 28.15423 -140.89236 34248 ft 437 kts 248°
2026-05-07 07:50 28.13012 -140.95564 34249 ft 437 kts 248°
2026-05-07 07:51 28.10603 -141.01875 34248 ft 436 kts 248°
2026-05-07 07:51 28.08193 -141.08177 34246 ft 436 kts 248°
2026-05-07 07:52 28.05781 -141.14476 34244 ft 436 kts 248°
2026-05-07 07:52 28.03365 -141.20773 34242 ft 436 kts 248°
2026-05-07 07:53 28.00948 -141.27064 34246 ft 436 kts 248°
2026-05-07 07:53 27.98529 -141.33348 34245 ft 435 kts 248°
2026-05-07 07:54 27.96109 -141.39626 34243 ft 435 kts 248°
2026-05-07 07:54 27.93684 -141.45906 34242 ft 435 kts 248°
2026-05-07 07:55 27.91275 -141.52135 34235 ft 435 kts 248°
2026-05-07 07:55 27.88846 -141.58406 34239 ft 435 kts 248°
2026-05-07 07:56 27.86415 -141.64670 34235 ft 435 kts 248°
2026-05-07 07:56 27.83982 -141.70930 34236 ft 435 kts 248°
2026-05-07 07:57 27.81548 -141.77184 34236 ft 435 kts 248°
2026-05-07 07:57 27.79109 -141.83440 34228 ft 435 kts 248°
2026-05-07 07:58 27.76683 -141.89652 34230 ft 435 kts 248°
2026-05-07 07:58 27.74236 -141.95909 34232 ft 435 kts 248°
2026-05-07 07:59 27.71787 -142.02159 34224 ft 435 kts 248°
2026-05-07 07:59 27.69338 -142.08401 34234 ft 435 kts 248°
2026-05-07 08:00 27.66882 -142.14651 34231 ft 435 kts 248°
2026-05-07 08:00 27.64422 -142.20898 34228 ft 436 kts 248°
2026-05-07 08:01 27.61960 -142.27145 34223 ft 436 kts 248°
2026-05-07 08:01 27.59491 -142.33396 34220 ft 436 kts 248°
2026-05-07 08:02 27.57022 -142.39640 34230 ft 436 kts 248°
2026-05-07 08:02 27.54549 -142.45882 34224 ft 436 kts 248°
2026-05-07 08:03 27.52090 -142.52079 34223 ft 436 kts 247°
2026-05-07 08:03 27.49614 -142.58311 34223 ft 436 kts 248°
2026-05-07 08:04 27.47134 -142.64541 34230 ft 436 kts 247°
2026-05-07 08:04 27.44648 -142.70777 34218 ft 436 kts 247°
2026-05-07 08:05 27.42162 -142.77006 34222 ft 436 kts 247°
2026-05-07 08:05 27.39673 -142.83230 34223 ft 436 kts 247°
2026-05-07 08:06 27.37196 -142.89414 34224 ft 436 kts 247°
2026-05-07 08:06 27.34702 -142.95632 34222 ft 436 kts 247°
2026-05-07 08:07 27.32207 -143.01841 34215 ft 436 kts 247°
2026-05-07 08:07 27.29707 -143.08054 34216 ft 436 kts 247°
2026-05-07 08:08 27.27206 -143.14263 34216 ft 435 kts 247°
2026-05-07 08:08 27.24700 -143.20470 34222 ft 435 kts 247°
2026-05-07 08:09 27.22197 -143.26663 34212 ft 435 kts 247°
2026-05-07 08:09 27.19704 -143.32820 34223 ft 435 kts 247°
2026-05-07 08:10 27.17197 -143.39002 34216 ft 435 kts 247°
2026-05-07 08:10 27.14687 -143.45183 34217 ft 435 kts 247°
2026-05-07 08:11 27.12174 -143.51361 34215 ft 435 kts 247°
2026-05-07 08:11 27.09659 -143.57536 34215 ft 435 kts 247°
2026-05-07 08:12 27.07145 -143.63698 34216 ft 434 kts 247°
2026-05-07 08:12 27.04626 -143.69864 34210 ft 434 kts 247°
2026-05-07 08:13 27.02108 -143.76020 34209 ft 434 kts 247°
2026-05-07 08:13 26.99585 -143.82175 34210 ft 434 kts 247°
2026-05-07 08:14 26.97057 -143.88332 34211 ft 434 kts 247°
2026-05-07 08:14 26.94529 -143.94483 34215 ft 434 kts 247°
2026-05-07 08:15 26.92018 -144.00584 34212 ft 434 kts 247°
2026-05-07 08:15 26.89483 -144.06732 34209 ft 434 kts 247°
2026-05-07 08:16 26.86947 -144.12874 34210 ft 434 kts 247°
2026-05-07 08:16 26.84409 -144.19011 34200 ft 434 kts 247°
2026-05-07 08:17 26.81871 -144.25140 34202 ft 434 kts 247°
2026-05-07 08:17 26.79330 -144.31267 34208 ft 434 kts 247°
2026-05-07 08:18 26.76783 -144.37397 34208 ft 434 kts 247°
2026-05-07 08:18 26.74237 -144.43518 34207 ft 434 kts 247°
2026-05-07 08:19 26.71704 -144.49599 34206 ft 434 kts 247°
2026-05-07 08:19 26.69149 -144.55723 34205 ft 434 kts 247°
2026-05-07 08:20 26.66594 -144.61837 34198 ft 434 kts 247°
2026-05-07 08:20 26.64470 -144.66915 34199 ft 434 kts 247°
2026-05-07 08:21 26.61913 -144.73018 34199 ft 434 kts 246°
2026-05-07 08:21 26.59351 -144.79123 34199 ft 434 kts 246°
2026-05-07 08:22 26.56783 -144.85234 34201 ft 434 kts 246°
2026-05-07 08:22 26.54216 -144.91336 34202 ft 434 kts 246°
2026-05-07 08:23 26.51646 -144.97435 34199 ft 434 kts 246°
2026-05-07 08:23 26.49074 -145.03528 34200 ft 434 kts 246°
2026-05-07 08:24 26.46499 -145.09621 34200 ft 434 kts 246°
2026-05-07 08:24 26.43920 -145.15715 34202 ft 434 kts 246°
2026-05-07 08:25 26.41343 -145.21796 34198 ft 434 kts 246°
2026-05-07 08:25 26.38776 -145.27841 34198 ft 434 kts 246°
2026-05-07 08:26 26.34897 -145.36964 34194 ft 434 kts 246°
2026-05-07 08:26 26.32308 -145.43041 34196 ft 434 kts 246°
2026-05-07 08:27 26.29714 -145.49122 34193 ft 434 kts 246°
2026-05-07 08:27 26.27116 -145.55205 34194 ft 434 kts 246°
2026-05-07 08:28 26.24517 -145.61282 34193 ft 434 kts 246°
2026-05-07 08:28 26.21930 -145.67323 34194 ft 435 kts 246°
2026-05-07 08:29 26.19325 -145.73398 34195 ft 435 kts 246°
2026-05-07 08:29 26.16716 -145.79473 34192 ft 435 kts 246°
2026-05-07 08:30 26.14103 -145.85549 34194 ft 435 kts 246°
2026-05-07 08:30 26.11489 -145.91618 34193 ft 435 kts 246°
2026-05-07 08:31 26.08874 -145.97683 34195 ft 435 kts 246°
2026-05-07 08:31 26.06254 -146.03749 34189 ft 435 kts 246°
2026-05-07 08:32 26.03628 -146.09821 34183 ft 436 kts 246°
2026-05-07 08:32 26.01000 -146.15889 34187 ft 436 kts 246°
2026-05-07 08:33 25.98358 -146.21956 34189 ft 436 kts 246°
2026-05-07 08:33 25.95723 -146.28029 34187 ft 436 kts 246°
2026-05-07 08:34 25.93088 -146.34094 34183 ft 436 kts 246°
2026-05-07 08:34 25.90445 -146.40171 34184 ft 436 kts 246°
2026-05-07 08:35 25.87799 -146.46245 34185 ft 437 kts 246°
2026-05-07 08:35 25.85151 -146.52314 34183 ft 437 kts 246°
2026-05-07 08:36 25.82500 -146.58383 34183 ft 437 kts 246°
2026-05-07 08:36 25.79862 -146.64414 34184 ft 437 kts 246°
2026-05-07 08:37 25.77200 -146.70490 34180 ft 437 kts 246°
2026-05-07 08:37 25.74537 -146.76560 34177 ft 438 kts 246°
2026-05-07 08:38 25.71869 -146.82635 34180 ft 438 kts 246°
2026-05-07 08:38 25.69198 -146.88706 34184 ft 438 kts 246°
2026-05-07 08:39 25.66522 -146.94781 34181 ft 438 kts 246°
2026-05-07 08:39 25.63842 -147.00858 34184 ft 439 kts 246°
2026-05-07 08:40 25.61158 -147.06933 34177 ft 439 kts 246°
2026-05-07 08:40 25.58471 -147.13009 34182 ft 439 kts 246°
2026-05-07 08:41 25.55779 -147.19086 34178 ft 439 kts 246°
2026-05-07 08:41 25.53104 -147.25116 34180 ft 439 kts 246°
2026-05-07 08:42 25.50410 -147.31183 34180 ft 439 kts 246°
2026-05-07 08:42 25.47712 -147.37250 34180 ft 439 kts 246°
2026-05-07 08:43 25.45007 -147.43322 34180 ft 440 kts 246°
2026-05-07 08:43 25.42300 -147.49392 34178 ft 440 kts 246°
2026-05-07 08:44 25.39591 -147.55458 34172 ft 440 kts 246°
2026-05-07 08:44 25.36877 -147.61526 34176 ft 440 kts 246°
2026-05-07 08:45 25.34162 -147.67589 34175 ft 440 kts 246°
2026-05-07 08:45 25.31456 -147.73621 34173 ft 441 kts 246°
2026-05-07 08:46 25.28733 -147.79685 34176 ft 441 kts 246°
2026-05-07 08:46 25.26002 -147.85759 34178 ft 441 kts 246°
2026-05-07 08:47 25.23273 -147.91821 34173 ft 441 kts 245°
2026-05-07 08:47 25.20539 -147.97884 34172 ft 441 kts 245°
2026-05-07 08:48 25.17802 -148.03945 34172 ft 441 kts 245°
2026-05-07 08:48 25.15063 -148.10005 34172 ft 441 kts 245°
2026-05-07 08:49 25.12319 -148.16066 34166 ft 441 kts 245°
2026-05-07 08:49 25.09572 -148.22126 34168 ft 442 kts 245°
2026-05-07 08:50 25.06816 -148.28197 34165 ft 442 kts 245°
2026-05-07 08:50 25.04061 -148.34258 34171 ft 442 kts 245°
2026-05-07 08:51 25.01302 -148.40319 34170 ft 442 kts 245°
2026-05-07 08:51 24.98537 -148.46384 34175 ft 443 kts 245°
2026-05-07 08:52 24.95771 -148.52447 34173 ft 443 kts 245°
2026-05-07 08:52 24.93002 -148.58505 34168 ft 443 kts 245°
2026-05-07 08:53 24.90246 -148.64528 34167 ft 443 kts 245°
2026-05-07 08:53 24.87454 -148.70622 34162 ft 443 kts 245°
2026-05-07 08:54 24.84693 -148.76639 34170 ft 443 kts 245°
2026-05-07 08:54 24.81913 -148.82691 34167 ft 443 kts 245°
2026-05-07 08:55 24.79126 -148.88749 34171 ft 444 kts 245°
2026-05-07 08:55 24.76337 -148.94803 34163 ft 444 kts 245°
2026-05-07 08:56 24.73542 -149.00863 34168 ft 444 kts 245°
2026-05-07 08:56 24.70744 -149.06921 34166 ft 444 kts 245°
2026-05-07 08:57 24.67946 -149.12971 34166 ft 444 kts 245°
2026-05-07 08:57 24.65141 -149.19028 34165 ft 445 kts 245°
2026-05-07 08:58 24.62332 -149.25087 34161 ft 445 kts 245°
2026-05-07 08:58 24.59521 -149.31142 34163 ft 445 kts 245°
2026-05-07 08:59 24.56705 -149.37198 34157 ft 445 kts 245°
2026-05-07 08:59 24.53902 -149.43219 34164 ft 445 kts 245°
2026-05-07 09:00 24.51079 -149.49275 34160 ft 445 kts 244°
2026-05-07 09:00 24.48254 -149.55329 34153 ft 445 kts 244°
2026-05-07 09:01 24.45427 -149.61379 34162 ft 445 kts 244°
2026-05-07 09:01 24.42596 -149.67429 34160 ft 445 kts 244°
2026-05-07 09:02 24.39763 -149.73475 34157 ft 445 kts 244°
2026-05-07 09:02 24.36926 -149.79522 34154 ft 446 kts 244°
2026-05-07 09:03 24.34085 -149.85569 34156 ft 446 kts 244°
2026-05-07 09:03 24.31242 -149.91613 34164 ft 446 kts 244°
2026-05-07 09:04 24.28396 -149.97656 34157 ft 446 kts 244°
2026-05-07 09:04 24.25543 -150.03705 34157 ft 447 kts 244°
2026-05-07 09:05 24.22704 -150.09718 34158 ft 447 kts 244°
2026-05-07 09:05 24.19845 -150.15764 34158 ft 447 kts 244°
2026-05-07 09:06 24.16985 -150.21807 34157 ft 447 kts 244°
2026-05-07 09:06 24.14120 -150.27852 34156 ft 447 kts 244°
2026-05-07 09:07 24.11716 -150.32916 34152 ft 447 kts 244°
2026-05-07 09:07 24.08866 -150.38916 34154 ft 447 kts 244°
2026-05-07 09:08 24.05987 -150.44966 34151 ft 448 kts 244°
2026-05-07 09:08 24.03110 -150.51008 34155 ft 448 kts 244°
2026-05-07 09:09 24.00228 -150.57049 34153 ft 448 kts 244°
2026-05-07 09:09 23.97343 -150.63090 34156 ft 448 kts 244°
2026-05-07 09:10 23.94455 -150.69131 34151 ft 448 kts 244°
2026-05-07 09:10 23.91563 -150.75171 34149 ft 448 kts 244°
2026-05-07 09:11 23.88672 -150.81201 34152 ft 448 kts 244°
2026-05-07 09:11 23.85776 -150.87236 34150 ft 448 kts 244°
2026-05-07 09:12 23.82876 -150.93272 34149 ft 448 kts 244°
2026-05-07 09:12 23.79976 -150.99297 34149 ft 448 kts 243°
2026-05-07 09:13 23.77073 -151.05324 34152 ft 448 kts 243°
2026-05-07 09:13 23.74185 -151.11310 34149 ft 449 kts 243°
2026-05-07 09:14 23.71275 -151.17336 34146 ft 448 kts 243°
2026-05-07 09:14 23.68363 -151.23357 34149 ft 448 kts 243°
2026-05-07 09:15 23.65449 -151.29375 34150 ft 449 kts 243°
2026-05-07 09:15 23.62534 -151.35388 34146 ft 449 kts 243°
2026-05-07 09:16 23.59615 -151.41402 34145 ft 448 kts 243°
2026-05-07 09:16 23.56695 -151.47411 34144 ft 448 kts 243°
2026-05-07 09:17 23.53774 -151.53414 34145 ft 448 kts 243°
2026-05-07 09:17 23.50848 -151.59420 34144 ft 448 kts 243°
2026-05-07 09:18 23.47921 -151.65420 34146 ft 448 kts 243°
2026-05-07 09:18 23.44993 -151.71416 34146 ft 448 kts 243°
2026-05-07 09:19 23.42066 -151.77402 34149 ft 448 kts 243°
2026-05-07 09:19 23.39148 -151.83361 34143 ft 448 kts 243°
2026-05-07 09:20 23.36214 -151.89347 34142 ft 448 kts 243°
2026-05-07 09:20 23.33277 -151.95332 34147 ft 448 kts 243°
2026-05-07 09:21 23.30340 -152.01310 34143 ft 448 kts 243°
2026-05-07 09:21 23.27403 -152.07283 34138 ft 448 kts 243°
2026-05-07 09:22 23.24462 -152.13256 34145 ft 448 kts 243°
2026-05-07 09:22 23.21521 -152.19223 34143 ft 448 kts 243°
2026-05-07 09:23 23.18577 -152.25189 34141 ft 448 kts 243°
2026-05-07 09:23 23.15631 -152.31149 34143 ft 448 kts 243°
2026-05-07 09:24 23.12681 -152.37113 34142 ft 448 kts 243°
2026-05-07 09:24 23.09727 -152.43077 34137 ft 448 kts 243°
2026-05-07 09:25 23.06792 -152.48994 34139 ft 448 kts 243°
2026-05-07 09:25 23.03837 -152.54949 34140 ft 448 kts 243°
2026-05-07 09:26 23.00859 -152.60884 34137 ft 448 kts 242°
2026-05-07 09:26 22.97884 -152.66814 34140 ft 448 kts 242°
2026-05-07 09:27 22.94905 -152.72751 34139 ft 448 kts 242°
2026-05-07 09:28 22.90432 -152.81649 34138 ft 448 kts 242°
2026-05-07 09:28 22.87451 -152.87573 34140 ft 448 kts 242°
2026-05-07 09:29 22.84482 -152.93464 34139 ft 448 kts 242°
2026-05-07 09:29 22.81494 -152.99388 34138 ft 448 kts 242°
2026-05-07 09:30 22.78503 -153.05307 34136 ft 448 kts 242°
2026-05-07 09:30 22.75512 -153.11223 34139 ft 448 kts 242°
2026-05-07 09:31 22.72518 -153.17136 34134 ft 448 kts 242°
2026-05-07 09:31 22.69521 -153.23049 34136 ft 448 kts 242°
2026-05-07 09:32 22.66520 -153.28963 34138 ft 448 kts 242°
2026-05-07 09:32 22.63515 -153.34878 34137 ft 448 kts 242°
2026-05-07 09:33 22.60510 -153.40786 34139 ft 448 kts 242°
2026-05-07 09:33 22.57520 -153.46657 34136 ft 448 kts 242°
2026-05-07 09:34 22.54508 -153.52566 34136 ft 448 kts 242°
2026-05-07 09:34 22.51496 -153.58466 34133 ft 448 kts 242°
2026-05-07 09:35 22.48476 -153.64377 34138 ft 448 kts 242°
2026-05-07 09:35 22.45455 -153.70281 34139 ft 449 kts 242°
2026-05-07 09:36 22.42436 -153.76178 34135 ft 449 kts 242°
2026-05-07 09:36 22.39410 -153.82081 34135 ft 449 kts 242°
2026-05-07 09:37 22.36775 -153.88166 34123 ft 446 kts 258°
2026-05-07 09:37 22.36505 -153.91446 34141 ft 445 kts 271°
2026-05-07 09:37 22.36545 -153.94845 34130 ft 447 kts 270°
2026-05-07 09:38 22.36639 -154.01529 34137 ft 448 kts 271°
2026-05-07 09:38 22.36773 -154.08257 34137 ft 448 kts 271°
2026-05-07 09:39 22.36912 -154.14991 34135 ft 448 kts 271°
2026-05-07 09:39 22.37048 -154.21724 34135 ft 448 kts 271°
2026-05-07 09:40 22.37181 -154.28469 34138 ft 449 kts 271°
2026-05-07 09:40 22.37312 -154.35213 34137 ft 449 kts 271°
2026-05-07 09:41 22.37439 -154.41954 34138 ft 449 kts 271°
2026-05-07 09:41 22.37564 -154.48704 34139 ft 449 kts 271°
2026-05-07 09:42 22.37687 -154.55462 34141 ft 450 kts 271°
2026-05-07 09:42 22.37806 -154.62215 34141 ft 450 kts 271°
2026-05-07 09:43 22.37923 -154.68973 34138 ft 449 kts 271°
2026-05-07 09:43 22.38036 -154.75678 34141 ft 449 kts 271°
2026-05-07 09:44 22.38147 -154.82431 34139 ft 449 kts 271°
2026-05-07 09:44 22.38256 -154.89182 34139 ft 449 kts 271°
2026-05-07 09:45 22.38361 -154.95929 34137 ft 449 kts 271°
2026-05-07 09:45 22.38464 -155.02686 34139 ft 449 kts 271°
2026-05-07 09:46 22.38563 -155.09389 34142 ft 449 kts 271°
2026-05-07 09:46 22.38660 -155.16174 34139 ft 449 kts 271°
2026-05-07 09:47 22.38754 -155.22871 34136 ft 449 kts 270°
2026-05-07 09:47 22.38846 -155.29614 34138 ft 449 kts 270°
2026-05-07 09:48 22.38934 -155.36359 34137 ft 449 kts 270°
2026-05-07 09:48 22.39020 -155.43114 34141 ft 450 kts 270°
2026-05-07 09:49 22.39103 -155.49874 34141 ft 450 kts 270°
2026-05-07 09:49 22.39184 -155.56640 34142 ft 450 kts 270°
2026-05-07 09:50 22.39261 -155.63407 34139 ft 451 kts 270°
2026-05-07 09:50 22.39336 -155.70142 34141 ft 450 kts 270°
2026-05-07 09:51 22.39408 -155.76912 34142 ft 451 kts 270°
2026-05-07 09:51 22.39477 -155.83690 34144 ft 451 kts 270°
2026-05-07 09:52 22.39544 -155.90467 34145 ft 451 kts 270°
2026-05-07 09:52 22.39608 -155.97260 34143 ft 451 kts 270°
2026-05-07 09:53 22.39669 -156.04040 34144 ft 452 kts 270°
2026-05-07 09:53 22.39729 -156.10825 34143 ft 452 kts 270°
2026-05-07 09:54 22.39776 -156.16467 34141 ft 452 kts 270°
2026-05-07 09:54 22.39365 -156.23206 34135 ft 450 kts 252°
2026-05-07 09:54 22.38064 -156.26257 34146 ft 449 kts 236°
2026-05-07 09:55 22.35499 -156.29785 34144 ft 451 kts 231°
2026-05-07 09:55 22.32176 -156.34197 34145 ft 451 kts 231°
2026-05-07 09:56 22.28204 -156.39392 34143 ft 451 kts 230°
2026-05-07 09:56 22.24198 -156.44607 34144 ft 451 kts 230°
2026-05-07 09:57 22.20186 -156.49822 34145 ft 451 kts 230°
2026-05-07 09:57 22.16170 -156.55037 34140 ft 451 kts 230°
2026-05-07 09:58 22.12155 -156.60246 34140 ft 451 kts 230°
2026-05-07 09:58 22.08140 -156.65450 34140 ft 451 kts 230°
2026-05-07 09:59 22.04132 -156.70638 34139 ft 450 kts 230°
2026-05-07 09:59 22.00126 -156.75821 34140 ft 449 kts 230°
2026-05-07 10:00 21.96123 -156.80994 34141 ft 449 kts 230°
2026-05-07 10:00 21.92121 -156.86161 34141 ft 449 kts 230°
2026-05-07 10:01 21.88148 -156.91286 34139 ft 449 kts 230°
2026-05-07 10:01 21.84148 -156.96442 34138 ft 448 kts 230°
2026-05-07 10:02 21.80154 -157.01593 34137 ft 448 kts 230°
2026-05-07 10:02 21.76160 -157.06739 34134 ft 448 kts 230°
2026-05-07 10:03 21.72171 -157.11875 34132 ft 447 kts 230°
2026-05-07 10:03 21.68180 -157.17007 34134 ft 447 kts 230°
2026-05-07 10:04 21.64191 -157.22134 34135 ft 447 kts 230°
2026-05-07 10:04 21.60203 -157.27253 34125 ft 447 kts 230°
2026-05-07 10:05 21.56215 -157.32369 34125 ft 446 kts 230°
2026-05-07 10:05 21.52223 -157.37484 34122 ft 446 kts 230°
2026-05-07 10:06 21.48235 -157.42588 34121 ft 446 kts 230°
2026-05-07 10:06 21.44254 -157.47680 34122 ft 445 kts 230°
2026-05-07 10:07 21.40298 -157.52733 34123 ft 445 kts 230°
2026-05-07 10:07 21.36316 -157.57814 34124 ft 445 kts 230°
2026-05-07 10:08 21.32332 -157.62892 34127 ft 444 kts 230°
2026-05-07 10:08 21.28365 -157.67961 34124 ft 444 kts 233°
2026-05-07 10:08 21.26813 -157.70807 34119 ft 442 kts 249°
2026-05-07 10:09 21.26145 -157.74004 34138 ft 441 kts 266°
2026-05-07 10:09 21.25910 -157.80599 34120 ft 444 kts 277°
2026-05-07 10:09 21.26737 -157.83780 34156 ft 445 kts 294°
2026-05-07 10:10 21.28388 -157.86586 34152 ft 449 kts 310°
2026-05-07 10:10 21.30741 -157.88796 34151 ft 453 kts 326°
2026-05-07 10:10 21.33606 -157.90217 34148 ft 457 kts 342°
2026-05-07 10:10 21.36751 -157.90726 34153 ft 461 kts 359°
2026-05-07 10:11 21.39934 -157.90273 34151 ft 464 kts 15°
2026-05-07 10:11 21.42906 -157.88884 34149 ft 467 kts 32°
2026-05-07 10:11 21.45408 -157.86672 34128 ft 468 kts 48°
2026-05-07 10:11 21.47252 -157.83800 34135 ft 469 kts 64°
2026-05-07 10:12 21.48301 -157.80490 34132 ft 469 kts 81°
2026-05-07 10:12 21.48467 -157.77013 34130 ft 468 kts 97°
2026-05-07 10:12 21.47742 -157.73626 34130 ft 465 kts 113°
2026-05-07 10:12 21.46211 -157.70637 34131 ft 463 kts 129°
2026-05-07 10:13 21.43964 -157.68201 34133 ft 460 kts 145°
2026-05-07 10:13 21.41190 -157.66540 34126 ft 456 kts 162°
2026-05-07 10:13 21.38120 -157.65787 34128 ft 452 kts 178°
2026-05-07 10:13 21.34998 -157.65991 34130 ft 449 kts 194°
2026-05-07 10:14 21.32081 -157.67132 34127 ft 445 kts 211°
2026-05-07 10:14 21.29613 -157.69104 34128 ft 443 kts 226°
2026-05-07 10:14 21.27498 -157.71512 34128 ft 445 kts 227°
2026-05-07 10:15 21.23291 -157.76374 34138 ft 445 kts 228°
2026-05-07 10:15 21.19131 -157.81282 34141 ft 445 kts 229°
2026-05-07 10:16 21.14983 -157.86196 34140 ft 444 kts 229°
2026-05-07 10:16 21.10803 -157.91074 34129 ft 445 kts 223°
2026-05-07 10:16 21.08227 -157.92889 34116 ft 446 kts 203°
2026-05-07 10:17 21.05211 -157.93670 34135 ft 450 kts 186°
2026-05-07 10:17 20.98947 -157.93600 34120 ft 455 kts 180°
2026-05-07 10:18 20.92724 -157.92440 34112 ft 460 kts 158°
2026-05-07 10:18 20.89989 -157.90668 34107 ft 464 kts 142°
2026-05-07 10:18 20.87791 -157.88140 34108 ft 468 kts 125°
2026-05-07 10:18 20.86322 -157.85032 34107 ft 471 kts 109°
2026-05-07 10:19 20.85733 -157.81592 34110 ft 473 kts 91°
2026-05-07 10:19 20.86090 -157.78097 34112 ft 474 kts 74°
2026-05-07 10:19 20.87377 -157.74871 34111 ft 473 kts 56°
2026-05-07 10:19 20.89479 -157.72200 34119 ft 470 kts 39°
2026-05-07 10:20 20.92202 -157.70319 34115 ft 466 kts 21°
2026-05-07 10:20 20.95297 -157.69391 34115 ft 461 kts
2026-05-07 10:20 20.98480 -157.69485 34119 ft 456 kts 347°
2026-05-07 10:20 21.01463 -157.70539 34118 ft 451 kts 330°
2026-05-07 10:21 21.03992 -157.72412 34117 ft 447 kts 314°
2026-05-07 10:21 21.05925 -157.74985 34121 ft 443 kts 298°
2026-05-07 10:21 21.07076 -157.78022 34125 ft 441 kts 282°
2026-05-07 10:21 21.07512 -157.81270 34116 ft 441 kts 270°
2026-05-07 10:22 21.07093 -157.84496 34122 ft 438 kts 252°
2026-05-07 10:22 21.05770 -157.87432 34136 ft 440 kts 236°
2026-05-07 10:22 21.03697 -157.89844 34113 ft 443 kts 219°
2026-05-07 10:22 21.01046 -157.91523 34126 ft 446 kts 203°
2026-05-07 10:23 20.98030 -157.92340 34122 ft 451 kts 189°
2026-05-07 10:23 20.94944 -157.92919 34091 ft 449 kts 201°
2026-05-07 10:23 20.92235 -157.94478 34101 ft 441 kts 222°
2026-05-07 10:23 20.90310 -157.96993 34101 ft 437 kts 244°
2026-05-07 10:24 20.89454 -158.00087 34103 ft 436 kts 266°
2026-05-07 10:24 20.89788 -158.03293 34102 ft 438 kts 288°
2026-05-07 10:24 20.91269 -158.06138 34102 ft 443 kts 310°
2026-05-07 10:24 20.93686 -158.08183 34103 ft 449 kts 332°
2026-05-07 10:25 20.96656 -158.09109 34108 ft 455 kts 354°
2026-05-07 10:25 20.99811 -158.08785 34114 ft 462 kts 15°
2026-05-07 10:25 21.02723 -158.07312 34144 ft 467 kts 29°
2026-05-07 10:26 21.08260 -158.03600 34124 ft 471 kts 40°
2026-05-07 10:26 21.10429 -158.00983 34149 ft 472 kts 57°
2026-05-07 10:26 21.11848 -157.97814 34147 ft 473 kts 73°
2026-05-07 10:26 21.12450 -157.94350 34131 ft 474 kts 88°
2026-05-07 10:27 21.12270 -157.90830 34147 ft 474 kts 101°
2026-05-07 10:27 21.11427 -157.87431 34132 ft 473 kts 112°
2026-05-07 10:27 21.09995 -157.84265 34126 ft 471 kts 123°
2026-05-07 10:27 21.08009 -157.81493 34131 ft 468 kts 136°
2026-05-07 10:28 21.05482 -157.79330 34121 ft 464 kts 152°
2026-05-07 10:28 21.02536 -157.78000 34115 ft 458 kts 168°
2026-05-07 10:28 20.99434 -157.77603 34111 ft 453 kts 185°
2026-05-07 10:28 20.96384 -157.78248 34101 ft 445 kts 205°
2026-05-07 10:29 20.93820 -157.80028 34103 ft 439 kts 227°
2026-05-07 10:29 20.92115 -157.82696 34099 ft 435 kts 249°
2026-05-07 10:29 20.91520 -157.85841 34102 ft 435 kts 271°
2026-05-07 10:30 20.93832 -157.91685 34102 ft 442 kts 315°
2026-05-07 10:30 20.96401 -157.93506 34105 ft 449 kts 336°
2026-05-07 10:30 20.99454 -157.94265 34111 ft 456 kts 355°
2026-05-07 10:30 21.02640 -157.94044 34136 ft 461 kts
2026-05-07 10:31 21.09043 -157.93826 34127 ft 463 kts
2026-05-07 10:31 21.12129 -157.92871 34132 ft 465 kts 25°
2026-05-07 10:31 21.14774 -157.90875 34143 ft 470 kts 45°
2026-05-07 10:32 21.16650 -157.88006 34143 ft 473 kts 66°
2026-05-07 10:32 21.17449 -157.84604 34141 ft 474 kts 88°
2026-05-07 10:32 21.17056 -157.81123 34139 ft 472 kts 110°
2026-05-07 10:32 21.15558 -157.78087 34130 ft 468 kts 131°
2026-05-07 10:33 21.13126 -157.75823 34123 ft 462 kts 153°
2026-05-07 10:33 21.10135 -157.74691 34121 ft 455 kts 175°
2026-05-07 10:33 21.07014 -157.74831 34116 ft 447 kts 197°
2026-05-07 10:33 21.04163 -157.76094 34134 ft 444 kts 212°
2026-05-07 10:34 20.99245 -157.80014 34102 ft 440 kts 233°
2026-05-07 10:34 20.97781 -157.82840 34102 ft 434 kts 254°
2026-05-07 10:34 20.97431 -157.86027 34108 ft 434 kts 275°
2026-05-07 10:35 20.98155 -157.89152 34106 ft 437 kts 295°
2026-05-07 10:35 20.99929 -157.91784 34115 ft 441 kts 316°
2026-05-07 10:35 21.02484 -157.93634 34133 ft 448 kts 333°
2026-05-07 10:35 21.05469 -157.94623 34126 ft 454 kts 349°
2026-05-07 10:36 21.08642 -157.94669 34128 ft 460 kts
2026-05-07 10:36 21.11703 -157.93636 34138 ft 466 kts 26°
2026-05-07 10:36 21.14320 -157.91578 34138 ft 471 kts 45°
2026-05-07 10:36 21.16188 -157.88702 34139 ft 474 kts 65°
2026-05-07 10:37 21.17014 -157.85296 34130 ft 475 kts 87°
2026-05-07 10:37 21.16662 -157.81844 34132 ft 474 kts 109°
2026-05-07 10:37 21.15176 -157.78736 34127 ft 470 kts 131°
2026-05-07 10:37 21.12764 -157.76437 34125 ft 464 kts 153°
2026-05-07 10:38 21.09777 -157.75260 34121 ft 456 kts 175°
2026-05-07 10:38 21.06650 -157.75353 34112 ft 448 kts 196°
2026-05-07 10:38 21.03770 -157.76553 34117 ft 444 kts 212°
2026-05-07 10:38 21.01194 -157.78361 34106 ft 442 kts 221°
2026-05-07 10:39 20.99008 -157.80655 34102 ft 439 kts 235°
2026-05-07 10:39 20.97660 -157.83527 34091 ft 433 kts 257°
2026-05-07 10:39 20.97399 -157.86720 34115 ft 433 kts 276°
2026-05-07 10:39 20.98211 -157.89816 34106 ft 436 kts 297°
2026-05-07 10:40 21.00074 -157.92365 34116 ft 441 kts 318°
2026-05-07 10:40 21.02687 -157.94102 34129 ft 448 kts 335°
2026-05-07 10:40 21.05709 -157.94971 34124 ft 455 kts 351°
2026-05-07 10:40 21.08886 -157.94887 34126 ft 461 kts
2026-05-07 10:41 21.11910 -157.93733 34130 ft 467 kts 28°
2026-05-07 10:41 21.14463 -157.91579 34139 ft 472 kts 47°
2026-05-07 10:41 21.16247 -157.88626 34141 ft 476 kts 68°
2026-05-07 10:41 21.16971 -157.85186 34142 ft 476 kts 89°
2026-05-07 10:42 21.16506 -157.81701 34134 ft 475 kts 111°
2026-05-07 10:42 21.14912 -157.78636 34131 ft 471 kts 133°
2026-05-07 10:42 21.12426 -157.76423 34127 ft 464 kts 155°
2026-05-07 10:42 21.10456 -157.75574 34124 ft 459 kts 169°
2026-05-07 10:43 21.07315 -157.75347 34115 ft 450 kts 192°
2026-05-07 10:43 21.04351 -157.76304 34125 ft 444 kts 209°
2026-05-07 10:43 21.01755 -157.78063 34118 ft 441 kts 222°
2026-05-07 10:43 20.98855 -157.81086 34099 ft 438 kts 236°
2026-05-07 10:44 20.97843 -157.82979 34096 ft 433 kts 250°
2026-05-07 10:44 20.97249 -157.86106 34114 ft 431 kts 270°
2026-05-07 10:44 20.97728 -157.89262 34111 ft 433 kts 290°
2026-05-07 10:44 20.99300 -157.92006 34110 ft 438 kts 312°
2026-05-07 10:45 21.02648 -157.94422 34119 ft 447 kts 336°
2026-05-07 10:45 21.04669 -157.95070 34123 ft 452 kts 347°
2026-05-07 10:45 21.07827 -157.95244 34128 ft 459 kts
2026-05-07 10:45 21.10929 -157.94395 34134 ft 465 kts 22°
2026-05-07 10:46 21.13652 -157.92506 34140 ft 471 kts 41°
2026-05-07 10:46 21.15688 -157.89757 34134 ft 476 kts 61°
2026-05-07 10:46 21.16744 -157.86401 34141 ft 478 kts 83°
2026-05-07 10:46 21.16627 -157.82863 34137 ft 477 kts 104°
2026-05-07 10:47 21.15371 -157.79662 34132 ft 474 kts 126°
2026-05-07 10:47 21.13118 -157.77134 34128 ft 468 kts 148°
2026-05-07 10:47 21.10212 -157.75680 34124 ft 459 kts 170°
2026-05-07 10:47 21.07076 -157.75479 34115 ft 450 kts 192°
2026-05-07 10:48 21.04113 -157.76444 34120 ft 444 kts 209°
2026-05-07 10:48 21.01508 -157.78188 34114 ft 441 kts 222°
2026-05-07 10:48 20.97722 -157.83168 34093 ft 432 kts 252°
2026-05-07 10:49 20.97251 -157.86311 34112 ft 430 kts 272°
2026-05-07 10:49 20.97852 -157.89441 34102 ft 432 kts 293°
2026-05-07 10:49 20.99534 -157.92104 34107 ft 437 kts 315°
2026-05-07 10:49 21.02044 -157.93955 34117 ft 444 kts 333°
2026-05-07 10:50 21.05020 -157.94935 34122 ft 452 kts 349°
2026-05-07 10:50 21.08181 -157.94973 34132 ft 459 kts
2026-05-07 10:50 21.11244 -157.93958 34134 ft 466 kts 25°
2026-05-07 10:50 21.13866 -157.91897 34141 ft 473 kts 45°
2026-05-07 10:51 21.15727 -157.89045 34144 ft 477 kts 65°
2026-05-07 10:51 21.16595 -157.85622 34140 ft 479 kts 86°
2026-05-07 10:51 21.16279 -157.82092 34137 ft 478 kts 108°
2026-05-07 10:51 21.14815 -157.78921 34129 ft 474 kts 130°
2026-05-07 10:52 21.12415 -157.76554 34125 ft 467 kts 152°
2026-05-07 10:52 21.09428 -157.75304 34121 ft 459 kts 174°
2026-05-07 10:52 21.06289 -157.75320 34113 ft 449 kts 195°
2026-05-07 10:52 21.03370 -157.76432 34118 ft 443 kts 212°
2026-05-07 10:53 21.00868 -157.78321 34119 ft 439 kts 224°
2026-05-07 10:53 20.98746 -157.80659 34096 ft 436 kts 237°
2026-05-07 10:53 20.97496 -157.83557 34099 ft 429 kts 259°
2026-05-07 10:53 20.97359 -157.86721 34104 ft 429 kts 278°
2026-05-07 10:54 20.98290 -157.89743 34106 ft 432 kts 299°
2026-05-07 10:54 21.00249 -157.92184 34109 ft 438 kts 320°
2026-05-07 10:54 21.02916 -157.93788 34123 ft 446 kts 337°
2026-05-07 10:54 21.05962 -157.94506 34126 ft 454 kts 353°
2026-05-07 10:55 21.09125 -157.94265 34130 ft 461 kts 11°
2026-05-07 10:55 21.12098 -157.92943 34135 ft 468 kts 30°
2026-05-07 10:55 21.14531 -157.90676 34142 ft 475 kts 49°
2026-05-07 10:55 21.16214 -157.87632 34139 ft 479 kts 69°
2026-05-07 10:56 21.16849 -157.84133 34139 ft 481 kts 90°
2026-05-07 10:56 21.16293 -157.80623 34137 ft 479 kts 112°
2026-05-07 10:56 21.14621 -157.77573 34127 ft 474 kts 134°
2026-05-07 10:56 21.12074 -157.75397 34121 ft 467 kts 156°
2026-05-07 10:57 21.09018 -157.74380 34112 ft 457 kts 178°
2026-05-07 10:57 21.05903 -157.74630 34116 ft 448 kts 199°
2026-05-07 10:57 21.03055 -157.75908 34118 ft 443 kts 213°
2026-05-07 10:57 21.00466 -157.77684 34108 ft 441 kts 221°
2026-05-07 10:58 20.98422 -157.80065 34095 ft 432 kts 241°
2026-05-07 10:58 20.97371 -157.83029 34098 ft 427 kts 262°
2026-05-07 10:58 20.97421 -157.86193 34103 ft 428 kts 282°
2026-05-07 10:58 20.98477 -157.89169 34111 ft 431 kts 300°
2026-05-07 10:59 21.00435 -157.91603 34114 ft 437 kts 319°
2026-05-07 10:59 21.03062 -157.93272 34122 ft 444 kts 335°
2026-05-07 10:59 21.06043 -157.94068 34124 ft 452 kts 352°
2026-05-07 10:59 21.09199 -157.93926 34131 ft 460 kts
2026-05-07 11:00 21.12203 -157.92696 34132 ft 468 kts 28°
2026-05-07 11:00 21.14715 -157.90460 34134 ft 475 kts 48°
2026-05-07 11:00 21.16436 -157.87437 34133 ft 480 kts 69°
2026-05-07 11:00 21.17082 -157.83938 34135 ft 482 kts 90°
2026-05-07 11:01 21.16534 -157.80416 34129 ft 481 kts 112°
2026-05-07 11:01 21.14869 -157.77351 34125 ft 476 kts 134°
2026-05-07 11:01 21.12328 -157.75154 34120 ft 468 kts 156°